owner,sensor,date,latitude,longitude,vertical_datum,direction_of_sea_water_velocity,sea_water_speed,upward_sea_water_velocity,qcFlag 
TABS,ioos:station:wmo:42043:1,2000-11-20T20:00:00Z,28.9818,-94.9186,2.0,230.9658521,63.87955307,-99999.0,'11111222,11111222,99999999' 
TABS,ioos:station:wmo:42043:1,2000-11-20T20:30:00Z,28.9818,-94.9186,2.0,233.2264762,54.50607764,-99999.0,'11111222,11111222,99999999' 
TABS,ioos:station:wmo:42043:1,2000-11-20T21:00:00Z,28.9818,-94.9186,2.0,233.4520583,47.28874813,-99999.0,'11111222,11111222,99999999' 
TABS,ioos:station:wmo:42043:1,2000-11-21T05:30:00Z,28.9818,-94.9186,2.0,220.0062461,26.64591901,-99999.0,'11111222,11111222,99999999' 
TABS,ioos:station:wmo:42043:1,2000-11-21T06:00:00Z,28.9818,-94.9186,2.0,213.4280234,27.31926976,-99999.0,'11111222,11111222,99999999' 
TABS,ioos:station:wmo:42043:1,2000-11-21T06:30:00Z,28.9818,-94.9186,2.0,204.4223573,26.67705006,-99999.0,'11111222,11111222,99999999' 
TABS,ioos:station:wmo:42043:1,2000-11-21T07:00:00Z,28.9818,-94.9186,2.0,214.5082318,28.93056688,-99999.0,'11111222,11111222,99999999' 
TABS,ioos:station:wmo:42043:1,2000-11-21T07:30:00Z,28.9818,-94.9186,2.0,224.9996843,29.28836288,-99999.0,'11111222,11111222,99999999' 
TABS,ioos:station:wmo:42043:1,2000-11-21T08:00:00Z,28.9818,-94.9186,2.0,231.7175263,32.45985983,-99999.0,'11111222,11111222,99999999' 
TABS,ioos:station:wmo:42043:1,2000-11-21T08:30:00Z,28.9818,-94.9186,2.0,224.6895341,39.18843197,-99999.0,'11111222,11111222,99999999' 
TABS,ioos:station:wmo:42043:1,2000-11-21T09:00:00Z,28.9818,-94.9186,2.0,234.6568471,34.52226093,-99999.0,'11111222,11111222,99999999' 
TABS,ioos:station:wmo:42043:1,2000-11-21T09:30:00Z,28.9818,-94.9186,2.0,244.7563147,31.79640231,-99999.0,'11111222,11111222,99999999' 
TABS,ioos:station:wmo:42043:1,2000-11-21T10:00:00Z,28.9818,-94.9186,2.0,246.507694,31.03205601,-99999.0,'11111222,11111222,99999999' 
TABS,ioos:station:wmo:42043:1,2000-11-21T10:30:00Z,28.9818,-94.9186,2.0,250.7754946,30.76555542,-99999.0,'11111222,11111222,99999999' 
TABS,ioos:station:wmo:42043:1,2000-11-21T11:00:00Z,28.9818,-94.9186,2.0,250.6321821,34.5872491,-99999.0,'11111222,11111222,99999999' 
TABS,ioos:station:wmo:42043:1,2000-11-21T11:30:00Z,28.9818,-94.9186,2.0,248.1008012,32.76413283,-99999.0,'11111222,11111222,99999999' 
TABS,ioos:station:wmo:42043:1,2000-11-21T12:00:00Z,28.9818,-94.9186,2.0,252.9208167,29.92985466,-99999.0,'11111222,11111222,99999999' 
TABS,ioos:station:wmo:42043:1,2000-11-21T12:30:00Z,28.9818,-94.9186,2.0,257.9192222,30.62826472,-99999.0,'11111222,11111222,99999999' 
TABS,ioos:station:wmo:42043:1,2000-11-21T13:00:00Z,28.9818,-94.9186,2.0,256.8444229,30.75715364,-99999.0,'11111222,11111222,99999999' 
TABS,ioos:station:wmo:42043:1,2000-11-21T13:30:00Z,28.9818,-94.9186,2.0,240.4410037,21.75084596,-99999.0,'11111222,11111222,99999999' 
TABS,ioos:station:wmo:42043:1,2000-11-21T14:00:00Z,28.9818,-94.9186,2.0,258.0322622,25.12609202,-99999.0,'11111222,11111222,99999999' 
TABS,ioos:station:wmo:42043:1,2000-11-21T14:30:00Z,28.9818,-94.9186,2.0,249.4360566,26.73336866,-99999.0,'11111222,11111222,99999999' 
TABS,ioos:station:wmo:42043:1,2000-11-21T15:00:00Z,28.9818,-94.9186,2.0,256.3856044,24.68352082,-99999.0,'11111222,11111222,99999999' 
TABS,ioos:station:wmo:42043:1,2000-11-21T15:30:00Z,28.9818,-94.9186,2.0,254.3899585,30.4739643,-99999.0,'11111222,11111222,99999999' 
TABS,ioos:station:wmo:42043:1,2000-11-21T16:00:00Z,28.9818,-94.9186,2.0,253.1142404,27.71484981,-99999.0,'11111222,11111222,99999999' 
TABS,ioos:station:wmo:42043:1,2000-11-21T16:30:00Z,28.9818,-94.9186,2.0,248.0278366,27.47560372,-99999.0,'11111222,11111222,99999999' 
TABS,ioos:station:wmo:42043:1,2000-11-21T17:00:00Z,28.9818,-94.9186,2.0,247.3472281,24.38077316,-99999.0,'11111222,11111222,99999999' 
TABS,ioos:station:wmo:42043:1,2000-11-21T17:30:00Z,28.9818,-94.9186,2.0,229.5748179,26.41683176,-99999.0,'11111222,11111222,99999999' 
TABS,ioos:station:wmo:42043:1,2000-11-21T18:00:00Z,28.9818,-94.9186,2.0,230.628465,30.06264293,-99999.0,'11111222,11111222,99999999' 
TABS,ioos:station:wmo:42043:1,2000-11-21T18:30:00Z,28.9818,-94.9186,2.0,227.0192729,26.88675882,-99999.0,'11111222,11111222,99999999' 
TABS,ioos:station:wmo:42043:1,2000-11-21T19:00:00Z,28.9818,-94.9186,2.0,227.3508103,35.85221053,-99999.0,'11111222,11111222,99999999' 
TABS,ioos:station:wmo:42043:1,2000-11-21T19:30:00Z,28.9818,-94.9186,2.0,238.2090363,38.74213469,-99999.0,'11111222,11111222,99999999' 
TABS,ioos:station:wmo:42043:1,2000-11-21T20:00:00Z,28.9818,-94.9186,2.0,252.1667179,58.38519333,-99999.0,'11111222,11111222,99999999' 
TABS,ioos:station:wmo:42043:1,2000-11-21T20:30:00Z,28.9818,-94.9186,2.0,241.2996809,67.94760408,-99999.0,'11111222,11111222,99999999' 
TABS,ioos:station:wmo:42043:1,2000-11-21T21:00:00Z,28.9818,-94.9186,2.0,249.5841845,69.63384019,-99999.0,'11111222,11111222,99999999' 
TABS,ioos:station:wmo:42043:1,2000-11-21T21:30:00Z,28.9818,-94.9186,2.0,243.5069634,53.10665683,-99999.0,'11111222,11111222,99999999' 
TABS,ioos:station:wmo:42043:1,2000-11-21T22:00:00Z,28.9818,-94.9186,2.0,261.4877071,82.55937803,-99999.0,'11111222,11111222,99999999' 
TABS,ioos:station:wmo:42043:1,2000-11-21T22:30:00Z,28.9818,-94.9186,2.0,225.6441526,37.71946182,-99999.0,'11111222,11111222,99999999' 
TABS,ioos:station:wmo:42043:1,2000-11-21T23:00:00Z,28.9818,-94.9186,2.0,234.0503848,38.83701327,-99999.0,'11111222,11111222,99999999' 
TABS,ioos:station:wmo:42043:1,2000-11-21T23:30:00Z,28.9818,-94.9186,2.0,246.3589154,40.49873578,-99999.0,'11111222,11111222,99999999' 
TABS,ioos:station:wmo:42043:1,2000-11-22T00:00:00Z,28.9818,-94.9186,2.0,246.3425892,36.75909955,-99999.0,'11111222,11111222,99999999' 
TABS,ioos:station:wmo:42043:1,2000-11-22T00:30:00Z,28.9818,-94.9186,2.0,245.4439999,32.2684149,-99999.0,'11111222,11111222,99999999' 
TABS,ioos:station:wmo:42043:1,2000-11-22T01:00:00Z,28.9818,-94.9186,2.0,250.5121467,30.81527057,-99999.0,'11111222,11111222,99999999' 
TABS,ioos:station:wmo:42043:1,2000-11-22T01:30:00Z,28.9818,-94.9186,2.0,256.4115784,27.28366728,-99999.0,'11111222,11111222,99999999' 
TABS,ioos:station:wmo:42043:1,2000-11-22T02:00:00Z,28.9818,-94.9186,2.0,264.0894526,24.57060235,-99999.0,'11111222,11111222,99999999' 
TABS,ioos:station:wmo:42043:1,2000-11-22T02:30:00Z,28.9818,-94.9186,2.0,263.210083,25.20677092,-99999.0,'11111222,11111222,99999999' 
TABS,ioos:station:wmo:42043:1,2000-11-22T03:00:00Z,28.9818,-94.9186,2.0,270.3748969,22.95049019,-99999.0,'11111222,11111222,99999999' 
TABS,ioos:station:wmo:42043:1,2000-11-22T03:30:00Z,28.9818,-94.9186,2.0,268.9447457,24.44414245,-99999.0,'11111222,11111222,99999999' 
TABS,ioos:station:wmo:42043:1,2000-11-22T04:00:00Z,28.9818,-94.9186,2.0,266.0888291,24.04599135,-99999.0,'11111222,11111222,99999999' 
TABS,ioos:station:wmo:42043:1,2000-11-22T05:30:00Z,28.9818,-94.9186,2.0,267.3531307,22.52402273,-99999.0,'11111222,11111222,99999999' 
TABS,ioos:station:wmo:42043:1,2000-11-22T06:00:00Z,28.9818,-94.9186,2.0,260.3886463,19.64574509,-99999.0,'11111222,11111222,99999999' 
TABS,ioos:station:wmo:42043:1,2000-11-22T06:30:00Z,28.9818,-94.9186,2.0,255.8493701,18.28479696,-99999.0,'11111222,11111222,99999999' 
TABS,ioos:station:wmo:42043:1,2000-11-22T07:00:00Z,28.9818,-94.9186,2.0,252.1385672,18.94299343,-99999.0,'11111222,11111222,99999999' 
TABS,ioos:station:wmo:42043:1,2000-11-22T07:30:00Z,28.9818,-94.9186,2.0,244.9932706,19.72941966,-99999.0,'11111222,11111222,99999999' 
TABS,ioos:station:wmo:42043:1,2000-11-22T08:00:00Z,28.9818,-94.9186,2.0,241.2348461,20.73916102,-99999.0,'11111222,11111222,99999999' 
TABS,ioos:station:wmo:42043:1,2000-11-22T08:30:00Z,28.9818,-94.9186,2.0,238.9740779,22.25366936,-99999.0,'11111222,11111222,99999999' 
TABS,ioos:station:wmo:42043:1,2000-11-22T09:00:00Z,28.9818,-94.9186,2.0,241.1682584,21.93957155,-99999.0,'11111222,11111222,99999999' 
TABS,ioos:station:wmo:42043:1,2000-11-22T09:30:00Z,28.9818,-94.9186,2.0,254.6144267,18.54456255,-99999.0,'11111222,11111222,99999999' 
TABS,ioos:station:wmo:42043:1,2000-11-22T10:00:00Z,28.9818,-94.9186,2.0,251.0797976,16.06810816,-99999.0,'11111222,11111222,99999999' 
TABS,ioos:station:wmo:42043:1,2000-11-22T10:30:00Z,28.9818,-94.9186,2.0,257.2690937,17.56171404,-99999.0,'11111222,11111222,99999999' 
TABS,ioos:station:wmo:42043:1,2000-11-22T11:00:00Z,28.9818,-94.9186,2.0,265.565388,17.33187814,-99999.0,'11111222,11111222,99999999' 
TABS,ioos:station:wmo:42043:1,2000-11-22T11:30:00Z,28.9818,-94.9186,2.0,264.5520573,18.85515845,-99999.0,'11111222,11111222,99999999' 
TABS,ioos:station:wmo:42043:1,2000-11-22T12:00:00Z,28.9818,-94.9186,2.0,276.4680098,15.89113589,-99999.0,'11111222,11111222,99999999' 
TABS,ioos:station:wmo:42043:1,2000-11-22T12:30:00Z,28.9818,-94.9186,2.0,282.2634309,14.0301283,-99999.0,'11111222,11111222,99999999' 
TABS,ioos:station:wmo:42043:1,2000-11-22T13:00:00Z,28.9818,-94.9186,2.0,295.7820503,14.39267869,-99999.0,'11111222,11111222,99999999' 
TABS,ioos:station:wmo:42043:1,2000-11-22T13:30:00Z,28.9818,-94.9186,2.0,333.2927964,25.18714752,-99999.0,'11111222,11111222,99999999' 
TABS,ioos:station:wmo:42043:1,2000-11-22T14:00:00Z,28.9818,-94.9186,2.0,249.4292149,14.00280329,-99999.0,'11111222,11111222,99999999' 
TABS,ioos:station:wmo:42043:1,2000-11-22T14:30:00Z,28.9818,-94.9186,2.0,301.2963375,9.760148564,-99999.0,'11133222,11111222,99999999' 
TABS,ioos:station:wmo:42043:1,2000-11-22T15:00:00Z,28.9818,-94.9186,2.0,334.9940816,19.39836076,-99999.0,'11111222,11111222,99999999' 
TABS,ioos:station:wmo:42043:1,2000-11-22T15:30:00Z,28.9818,-94.9186,2.0,349.2019116,19.10835681,-99999.0,'11111222,11111222,99999999' 
TABS,ioos:station:wmo:42043:1,2000-11-22T16:00:00Z,28.9818,-94.9186,2.0,332.0477089,19.39239542,-99999.0,'11111222,11111222,99999999' 
TABS,ioos:station:wmo:42043:1,2000-11-22T16:30:00Z,28.9818,-94.9186,2.0,328.0550602,12.11472245,-99999.0,'11111222,11111222,99999999' 
TABS,ioos:station:wmo:42043:1,2000-11-22T17:00:00Z,28.9818,-94.9186,2.0,346.3537025,16.40306374,-99999.0,'11111222,11111222,99999999' 
TABS,ioos:station:wmo:42043:1,2000-11-22T17:30:00Z,28.9818,-94.9186,2.0,355.5112074,22.87015741,-99999.0,'11111222,11111222,99999999' 
TABS,ioos:station:wmo:42043:1,2000-11-22T18:00:00Z,28.9818,-94.9186,2.0,347.5853603,18.00092498,-99999.0,'11111222,11111222,99999999' 
TABS,ioos:station:wmo:42043:1,2000-11-22T18:30:00Z,28.9818,-94.9186,2.0,346.3186939,17.63025241,-99999.0,'11111222,11111222,99999999' 
TABS,ioos:station:wmo:42043:1,2000-11-22T19:00:00Z,28.9818,-94.9186,2.0,347.630393,18.76564148,-99999.0,'11111222,11111222,99999999' 
TABS,ioos:station:wmo:42043:1,2000-11-22T19:30:00Z,28.9818,-94.9186,2.0,270.0004209,8.05,-99999.0,'11133222,11111222,99999999' 
TABS,ioos:station:wmo:42043:1,2000-11-22T20:00:00Z,28.9818,-94.9186,2.0,322.4141379,13.91908761,-99999.0,'11111222,11111222,99999999' 
TABS,ioos:station:wmo:42043:1,2000-11-22T20:30:00Z,28.9818,-94.9186,2.0,324.0710462,18.03042983,-99999.0,'11111222,11111222,99999999' 
TABS,ioos:station:wmo:42043:1,2000-11-22T21:00:00Z,28.9818,-94.9186,2.0,312.688957,15.60440002,-99999.0,'11111222,11111222,99999999' 
TABS,ioos:station:wmo:42043:1,2000-11-22T21:30:00Z,28.9818,-94.9186,2.0,315.8125814,14.96388319,-99999.0,'11111222,11111222,99999999' 
TABS,ioos:station:wmo:42043:1,2000-11-22T22:00:00Z,28.9818,-94.9186,2.0,241.9309608,17.72470592,-99999.0,'11111222,11111222,99999999' 
TABS,ioos:station:wmo:42043:1,2000-11-22T22:30:00Z,28.9818,-94.9186,2.0,278.5666284,7.989123857,-99999.0,'11133222,11111222,99999999' 
TABS,ioos:station:wmo:42043:1,2000-11-22T23:00:00Z,28.9818,-94.9186,2.0,311.4005449,15.09114972,-99999.0,'11111222,11111222,99999999' 
TABS,ioos:station:wmo:42043:1,2000-11-22T23:30:00Z,28.9818,-94.9186,2.0,296.5434324,11.65885929,-99999.0,'11111222,11111222,99999999' 
TABS,ioos:station:wmo:42043:1,2000-11-23T00:00:00Z,28.9818,-94.9186,2.0,299.4744044,11.80823865,-99999.0,'11111222,11111222,99999999' 
TABS,ioos:station:wmo:42043:1,2000-11-23T00:30:00Z,28.9818,-94.9186,2.0,284.055485,14.74131609,-99999.0,'11111222,11111222,99999999' 
TABS,ioos:station:wmo:42043:1,2000-11-23T01:00:00Z,28.9818,-94.9186,2.0,289.4698354,12.96112649,-99999.0,'11111222,11111222,99999999' 
TABS,ioos:station:wmo:42043:1,2000-11-23T01:30:00Z,28.9818,-94.9186,2.0,289.693282,12.81980109,-99999.0,'11111222,11111222,99999999' 
TABS,ioos:station:wmo:42043:1,2000-11-23T02:00:00Z,28.9818,-94.9186,2.0,308.4085589,11.02597388,-99999.0,'11111222,11111222,99999999' 
TABS,ioos:station:wmo:42043:1,2000-11-23T02:30:00Z,28.9818,-94.9186,2.0,319.3933536,10.98535844,-99999.0,'11111222,11111222,99999999' 
TABS,ioos:station:wmo:42043:1,2000-11-23T03:00:00Z,28.9818,-94.9186,2.0,337.2748088,10.01770932,-99999.0,'11111222,11111222,99999999' 
TABS,ioos:station:wmo:42043:1,2000-11-23T03:30:00Z,28.9818,-94.9186,2.0,318.8046556,11.08357343,-99999.0,'11111222,11111222,99999999' 
TABS,ioos:station:wmo:42043:1,2000-11-23T04:00:00Z,28.9818,-94.9186,2.0,318.7145152,9.714839165,-99999.0,'11133222,11111222,99999999' 
TABS,ioos:station:wmo:42043:1,2000-11-23T05:30:00Z,28.9818,-94.9186,2.0,284.9381882,11.56067905,-99999.0,'11111222,11111222,99999999' 
TABS,ioos:station:wmo:42043:1,2000-11-23T06:00:00Z,28.9818,-94.9186,2.0,289.9142316,9.189477678,-99999.0,'11133222,11111222,99999999' 
TABS,ioos:station:wmo:42043:1,2000-11-23T06:30:00Z,28.9818,-94.9186,2.0,252.67754,7.489686242,-99999.0,'11133222,11111222,99999999' 
TABS,ioos:station:wmo:42043:1,2000-11-23T07:00:00Z,28.9818,-94.9186,2.0,239.0547484,10.42368457,-99999.0,'11111222,11111222,99999999' 
TABS,ioos:station:wmo:42043:1,2000-11-23T07:30:00Z,28.9818,-94.9186,2.0,237.5906937,9.179809366,-99999.0,'11133222,11111222,99999999' 
TABS,ioos:station:wmo:42043:1,2000-11-23T08:00:00Z,28.9818,-94.9186,2.0,235.4673373,8.679222315,-99999.0,'11133222,11111222,99999999' 
TABS,ioos:station:wmo:42043:1,2000-11-23T08:30:00Z,28.9818,-94.9186,2.0,243.43459,16.32329624,-99999.0,'11111222,11111222,99999999' 
TABS,ioos:station:wmo:42043:1,2000-11-23T09:00:00Z,28.9818,-94.9186,2.0,229.9292598,19.66667486,-99999.0,'11111222,11111222,99999999' 
TABS,ioos:station:wmo:42043:1,2000-11-23T09:30:00Z,28.9818,-94.9186,2.0,239.4501629,21.11031265,-99999.0,'11111222,11111222,99999999' 
TABS,ioos:station:wmo:42043:1,2000-11-23T10:00:00Z,28.9818,-94.9186,2.0,238.8601257,18.44818961,-99999.0,'11111222,11111222,99999999' 
TABS,ioos:station:wmo:42043:1,2000-11-23T10:30:00Z,28.9818,-94.9186,2.0,240.2473739,19.22414367,-99999.0,'11111222,11111222,99999999' 
TABS,ioos:station:wmo:42043:1,2000-11-23T11:00:00Z,28.9818,-94.9186,2.0,243.9863769,13.93134954,-99999.0,'11111222,11111222,99999999' 
TABS,ioos:station:wmo:42043:1,2000-11-23T11:30:00Z,28.9818,-94.9186,2.0,259.236337,12.74420653,-99999.0,'11111222,11111222,99999999' 
TABS,ioos:station:wmo:42043:1,2000-11-23T12:00:00Z,28.9818,-94.9186,2.0,263.3641389,9.000288884,-99999.0,'11133222,11111222,99999999' 
TABS,ioos:station:wmo:42043:1,2000-11-23T12:30:00Z,28.9818,-94.9186,2.0,258.504998,9.735255518,-99999.0,'11133222,11111222,99999999' 
TABS,ioos:station:wmo:42043:1,2000-11-23T13:00:00Z,28.9818,-94.9186,2.0,273.6745341,13.88854564,-99999.0,'11111222,11111222,99999999' 
TABS,ioos:station:wmo:42043:1,2000-11-23T13:30:00Z,28.9818,-94.9186,2.0,273.6016906,7.164146844,-99999.0,'11133222,11111222,99999999' 
TABS,ioos:station:wmo:42043:1,2000-11-23T14:00:00Z,28.9818,-94.9186,2.0,280.7481219,8.794270862,-99999.0,'11133222,11111222,99999999' 
TABS,ioos:station:wmo:42043:1,2000-11-23T14:30:00Z,28.9818,-94.9186,2.0,263.4906379,10.49766641,-99999.0,'11111222,11111222,99999999' 
TABS,ioos:station:wmo:42043:1,2000-11-23T15:00:00Z,28.9818,-94.9186,2.0,275.6144713,10.63099243,-99999.0,'11111222,11111222,99999999' 
TABS,ioos:station:wmo:42043:1,2000-11-23T15:30:00Z,28.9818,-94.9186,2.0,287.645092,13.75721629,-99999.0,'11111222,11111222,99999999' 
TABS,ioos:station:wmo:42043:1,2000-11-23T16:00:00Z,28.9818,-94.9186,2.0,276.8640968,8.702367494,-99999.0,'11133222,11111222,99999999' 
TABS,ioos:station:wmo:42043:1,2000-11-23T16:30:00Z,28.9818,-94.9186,2.0,296.56541,2.660920893,-99999.0,'11133222,11111222,99999999' 
TABS,ioos:station:wmo:42043:1,2000-11-23T17:00:00Z,28.9818,-94.9186,2.0,345.5765239,5.379563179,-99999.0,'11133222,11111222,99999999' 
TABS,ioos:station:wmo:42043:1,2000-11-23T17:30:00Z,28.9818,-94.9186,2.0,19.70910259,8.391596987,-99999.0,'11133222,11111222,99999999' 
TABS,ioos:station:wmo:42043:1,2000-11-23T18:00:00Z,28.9818,-94.9186,2.0,231.8121137,10.61080581,-99999.0,'11111222,11111222,99999999' 
TABS,ioos:station:wmo:42043:1,2000-11-23T18:30:00Z,28.9818,-94.9186,2.0,273.3187335,15.37577966,-99999.0,'11111222,11111222,99999999' 
TABS,ioos:station:wmo:42043:1,2000-11-23T19:00:00Z,28.9818,-94.9186,2.0,358.4617537,11.17402792,-99999.0,'11111222,11111222,99999999' 
TABS,ioos:station:wmo:42043:1,2000-11-23T19:30:00Z,28.9818,-94.9186,2.0,258.2049685,20.40073038,-99999.0,'11111222,11111222,99999999' 
TABS,ioos:station:wmo:42043:1,2000-11-23T20:00:00Z,28.9818,-94.9186,2.0,256.4755978,16.54886703,-99999.0,'11111222,11111222,99999999' 
TABS,ioos:station:wmo:42043:1,2000-11-23T20:30:00Z,28.9818,-94.9186,2.0,257.7048074,15.40327563,-99999.0,'11111222,11111222,99999999' 
TABS,ioos:station:wmo:42043:1,2000-11-23T21:00:00Z,28.9818,-94.9186,2.0,63.78264806,11.79323959,-99999.0,'11111222,11111222,99999999' 
TABS,ioos:station:wmo:42043:1,2000-11-23T21:30:00Z,28.9818,-94.9186,2.0,270.0004209,8.34,-99999.0,'11133222,11111222,99999999' 
TABS,ioos:station:wmo:42043:1,2000-11-23T22:00:00Z,28.9818,-94.9186,2.0,252.3292276,7.346625076,-99999.0,'11133222,11111222,99999999' 
TABS,ioos:station:wmo:42043:1,2000-11-23T22:30:00Z,28.9818,-94.9186,2.0,246.1782886,7.006925146,-99999.0,'11133222,11111222,99999999' 
TABS,ioos:station:wmo:42043:1,2000-11-23T23:00:00Z,28.9818,-94.9186,2.0,260.5669659,6.345801762,-99999.0,'11133222,11111222,99999999' 
TABS,ioos:station:wmo:42043:1,2000-11-23T23:30:00Z,28.9818,-94.9186,2.0,265.7873739,6.126548784,-99999.0,'11133222,11111222,99999999' 
TABS,ioos:station:wmo:42043:1,2000-11-24T00:00:00Z,28.9818,-94.9186,2.0,242.0582403,5.399425895,-99999.0,'11133222,11111222,99999999' 
TABS,ioos:station:wmo:42043:1,2000-11-24T00:30:00Z,28.9818,-94.9186,2.0,270.0004209,6.26,-99999.0,'11133222,11111222,99999999' 
TABS,ioos:station:wmo:42043:1,2000-11-24T01:00:00Z,28.9818,-94.9186,2.0,281.8737451,5.783744462,-99999.0,'11133222,11111222,99999999' 
TABS,ioos:station:wmo:42043:1,2000-11-24T01:30:00Z,28.9818,-94.9186,2.0,284.9371177,6.944652619,-99999.0,'11133222,11111222,99999999' 
TABS,ioos:station:wmo:42043:1,2000-11-24T02:00:00Z,28.9818,-94.9186,2.0,270.0004209,8.49,-99999.0,'11133222,11111222,99999999' 
TABS,ioos:station:wmo:42043:1,2000-11-24T02:30:00Z,28.9818,-94.9186,2.0,260.5502742,7.248351537,-99999.0,'11133222,11111222,99999999' 
TABS,ioos:station:wmo:42043:1,2000-11-24T03:00:00Z,28.9818,-94.9186,2.0,270.0004209,9.98,-99999.0,'11133222,11111222,99999999' 
TABS,ioos:station:wmo:42043:1,2000-11-24T03:30:00Z,28.9818,-94.9186,2.0,287.293372,9.520346632,-99999.0,'11133222,11111222,99999999' 
TABS,ioos:station:wmo:42043:1,2000-11-24T04:00:00Z,28.9818,-94.9186,2.0,300.5563137,6.746925226,-99999.0,'11133222,11111222,99999999' 
TABS,ioos:station:wmo:42043:1,2000-11-24T05:30:00Z,28.9818,-94.9186,2.0,258.4244173,5.930615482,-99999.0,'11133222,11111222,99999999' 
TABS,ioos:station:wmo:42043:1,2000-11-24T06:00:00Z,28.9818,-94.9186,2.0,286.3216839,9.002805118,-99999.0,'11133222,11111222,99999999' 
TABS,ioos:station:wmo:42043:1,2000-11-24T06:30:00Z,28.9818,-94.9186,2.0,265.694497,9.857814159,-99999.0,'11133222,11111222,99999999' 
TABS,ioos:station:wmo:42043:1,2000-11-24T07:00:00Z,28.9818,-94.9186,2.0,250.7038687,9.472090582,-99999.0,'11133222,11111222,99999999' 
TABS,ioos:station:wmo:42043:1,2000-11-24T07:30:00Z,28.9818,-94.9186,2.0,252.2417921,8.295233571,-99999.0,'11133222,11111222,99999999' 
TABS,ioos:station:wmo:42043:1,2000-11-24T08:00:00Z,28.9818,-94.9186,2.0,262.6381837,8.116902118,-99999.0,'11133222,11111222,99999999' 
TABS,ioos:station:wmo:42043:1,2000-11-24T08:30:00Z,28.9818,-94.9186,2.0,241.2262859,12.07031483,-99999.0,'11111222,11111222,99999999' 
TABS,ioos:station:wmo:42043:1,2000-11-24T09:30:00Z,28.9818,-94.9186,2.0,203.7583312,29.95899364,-99999.0,'11111222,11111222,99999999' 
TABS,ioos:station:wmo:42043:1,2000-11-24T10:00:00Z,28.9818,-94.9186,2.0,191.3630435,29.48803486,-99999.0,'11111222,11111222,99999999' 
TABS,ioos:station:wmo:42043:1,2000-11-24T10:30:00Z,28.9818,-94.9186,2.0,195.6542093,39.76502232,-99999.0,'11111222,11111222,99999999' 
TABS,ioos:station:wmo:42043:1,2000-11-24T11:00:00Z,28.9818,-94.9186,2.0,193.7574481,51.38420477,-99999.0,'11111222,11111222,99999999' 
TABS,ioos:station:wmo:42043:1,2000-11-24T11:30:00Z,28.9818,-94.9186,2.0,200.884927,57.25162181,-99999.0,'11111222,11111222,99999999' 
TABS,ioos:station:wmo:42043:1,2000-11-24T12:00:00Z,28.9818,-94.9186,2.0,206.8581526,64.63215608,-99999.0,'11111222,11111222,99999999' 
TABS,ioos:station:wmo:42043:1,2000-11-24T12:30:00Z,28.9818,-94.9186,2.0,217.5396069,60.88816305,-99999.0,'11111222,11111222,99999999' 
TABS,ioos:station:wmo:42043:1,2000-11-24T13:00:00Z,28.9818,-94.9186,2.0,218.799446,57.54864117,-99999.0,'11111222,11111222,99999999' 
TABS,ioos:station:wmo:42043:1,2000-11-24T13:30:00Z,28.9818,-94.9186,2.0,220.234791,53.28788605,-99999.0,'11111222,11111222,99999999' 
TABS,ioos:station:wmo:42043:1,2000-11-24T14:00:00Z,28.9818,-94.9186,2.0,217.1444815,36.26841739,-99999.0,'11111222,11111222,99999999' 
TABS,ioos:station:wmo:42043:1,2000-11-24T14:30:00Z,28.9818,-94.9186,2.0,196.7501989,28.93785929,-99999.0,'11111222,11111222,99999999' 
TABS,ioos:station:wmo:42043:1,2000-11-24T15:00:00Z,28.9818,-94.9186,2.0,186.5656633,29.99674816,-99999.0,'11111222,11111222,99999999' 
TABS,ioos:station:wmo:42043:1,2000-11-24T15:30:00Z,28.9818,-94.9186,2.0,190.8719429,30.80289921,-99999.0,'11111222,11111222,99999999' 
TABS,ioos:station:wmo:42043:1,2000-11-24T16:00:00Z,28.9818,-94.9186,2.0,191.6484939,29.51795555,-99999.0,'11111222,11111222,99999999' 
TABS,ioos:station:wmo:42043:1,2000-11-24T16:30:00Z,28.9818,-94.9186,2.0,203.308485,29.36673799,-99999.0,'11111222,11111222,99999999' 
TABS,ioos:station:wmo:42043:1,2000-11-24T17:00:00Z,28.9818,-94.9186,2.0,204.2625847,28.27777926,-99999.0,'11111222,11111222,99999999' 
TABS,ioos:station:wmo:42043:1,2000-11-24T17:30:00Z,28.9818,-94.9186,2.0,205.6217256,28.25878271,-99999.0,'11111222,11111222,99999999' 
TABS,ioos:station:wmo:42043:1,2000-11-24T18:00:00Z,28.9818,-94.9186,2.0,204.594112,29.0010655,-99999.0,'11111222,11111222,99999999' 
TABS,ioos:station:wmo:42043:1,2000-11-24T18:30:00Z,28.9818,-94.9186,2.0,182.6814018,41.46540727,-99999.0,'11111222,11111222,99999999' 
TABS,ioos:station:wmo:42043:1,2000-11-24T19:00:00Z,28.9818,-94.9186,2.0,179.9997895,49.62,-99999.0,'11111222,11111222,99999999' 
TABS,ioos:station:wmo:42043:1,2000-11-24T19:30:00Z,28.9818,-94.9186,2.0,162.898833,24.31501799,-99999.0,'11111222,11111222,99999999' 
TABS,ioos:station:wmo:42043:1,2000-11-24T20:00:00Z,28.9818,-94.9186,2.0,167.9825658,18.58734247,-99999.0,'11111222,11111222,99999999' 
TABS,ioos:station:wmo:42043:1,2000-11-24T20:30:00Z,28.9818,-94.9186,2.0,159.6428362,25.26816574,-99999.0,'11111222,11111222,99999999' 
TABS,ioos:station:wmo:42043:1,2000-11-24T21:00:00Z,28.9818,-94.9186,2.0,127.004387,13.62403758,-99999.0,'11111222,11111222,99999999' 
TABS,ioos:station:wmo:42043:1,2000-11-24T21:30:00Z,28.9818,-94.9186,2.0,161.557488,24.49816524,-99999.0,'11111222,11111222,99999999' 
TABS,ioos:station:wmo:42043:1,2000-11-24T22:00:00Z,28.9818,-94.9186,2.0,163.7905239,22.96280906,-99999.0,'11111222,11111222,99999999' 
TABS,ioos:station:wmo:42043:1,2000-11-24T22:30:00Z,28.9818,-94.9186,2.0,173.9601853,25.47138198,-99999.0,'11111222,11111222,99999999' 
TABS,ioos:station:wmo:42043:1,2000-11-24T23:00:00Z,28.9818,-94.9186,2.0,165.6276036,18.61250386,-99999.0,'11111222,11111222,99999999' 
TABS,ioos:station:wmo:42043:1,2000-11-24T23:30:00Z,28.9818,-94.9186,2.0,169.6007521,23.93311513,-99999.0,'11111222,11111222,99999999' 